Location: Gro�sch�nbrunn
(49.5760°N, 11.8868°E)
Time: 05:18:37
(UTC+00:00)

OBJECT-B - Pass Details

Date: 18 September 2020
Orbit: 421 x 433 km, 97.0° (Epoch: 09 October)

Event Time Altitude Azimuth Distance (km) Brightness Sun altitude
Exits shadow 20:34:37 10° 271° (W) 1,514 4.1 -29.5°
Maximum altitude 20:34:40 10° 272° (W) 1,514 4.1 -29.5°
Drops below altitude 10° 20:34:46 10° 274° (W) 1,515 4.1 -29.5°
Sets 20:38:54 0° 326° (NW) 2,393 5.7 -30.0°
